Terminal Aerodrome Forecast
Issued by NWS

Home | Current Version | Previous Version | Text Only | Print | Product List | Glossary On
Versions: 1 2 3 4 5 6 7 8 9 10 11 12 13 14 15 16 17 18 19
000
FTUS45 KSLC 211501 AAA
TAFEVW
TAF AMD
KEVW 211501Z 2115/2212 09008KT 1/2SM -SN FG VV007
     FM211900 25007KT 2SM -SN BR BKN005 BKN015
     FM212100 26012G20KT P6SM VCSH SCT020 BKN040
     FM220600 22010KT P6SM SCT040 BKN080=

USA.gov is the U.S. government's official web portal to all federal, state and local government web resources and services.